Time,TemperatureF,DewpointF,PressureIn,WindDirection,WindDirectionDegrees,WindSpeedMPH,WindSpeedGustMPH,Humidity,HourlyPrecipIn,Conditions,Clouds,dailyrainin,SoftwareType,DateUTC
2013-01-31 00:01:00,35.1,34.5,29.00,SSW,202,1.3,1.3,98,0.00,,---,0.00,VWS V14.01,2013-01-31 05:01:00,
2013-01-31 00:03:00,35.1,34.5,29.00,SSW,202,0.0,0.9,98,0.00,,---,0.00,VWS V14.01,2013-01-31 05:03:00,
2013-01-31 00:06:00,35.2,34.7,29.00,SSW,202,1.6,1.6,98,0.00,,---,0.00,VWS V14.01,2013-01-31 05:06:00,
2013-01-31 00:09:00,35.2,34.7,29.00,SSW,202,0.0,0.0,98,0.00,,---,0.00,VWS V14.01,2013-01-31 05:09:00,
2013-01-31 00:14:00,34.9,34.4,29.00,SSW,202,1.6,1.6,98,0.00,,---,0.00,VWS V14.01,2013-01-31 05:14:00,
2013-01-31 00:19:00,34.9,34.4,28.97,SSW,202,2.0,2.5,98,0.00,,---,0.00,VWS V14.01,2013-01-31 05:19:00,
2013-01-31 00:24:00,35.1,34.5,28.97,SSW,202,2.2,2.2,98,0.00,,---,0.00,VWS V14.01,2013-01-31 05:24:00,
2013-01-31 00:29:00,34.7,34.2,28.97,SSW,202,0.0,1.1,98,0.00,,---,0.00,VWS V14.01,2013-01-31 05:29:00,
2013-01-31 00:34:00,34.7,34.2,28.97,SSW,202,0.0,0.0,98,0.00,,---,0.00,VWS V14.01,2013-01-31 05:34:00,
2013-01-31 00:39:00,34.9,34.4,28.97,SSE,158,1.6,1.6,98,0.00,,---,0.00,VWS V14.01,2013-01-31 05:39:00,
2013-01-31 00:44:00,35.1,34.5,28.97,South,180,2.5,2.9,98,0.00,,---,0.00,VWS V14.01,2013-01-31 05:44:00,
2013-01-31 00:49:00,34.9,34.4,28.97,South,180,1.6,1.6,98,0.00,,---,0.00,VWS V14.01,2013-01-31 05:49:00,
2013-01-31 00:54:00,34.9,34.4,28.97,South,180,1.1,1.3,98,0.00,,---,0.00,VWS V14.01,2013-01-31 05:54:00,
2013-01-31 01:00:00,34.9,34.4,28.97,South,180,0.0,0.0,98,0.00,,---,0.00,VWS V14.01,2013-01-31 06:00:00,
2013-01-31 01:05:00,34.9,34.4,28.94,South,180,2.0,2.0,98,0.00,,---,0.00,VWS V14.01,2013-01-31 06:05:00,
2013-01-31 01:11:00,34.7,34.2,28.94,South,180,2.5,2.5,98,0.00,,---,0.00,VWS V14.01,2013-01-31 06:11:00,
2013-01-31 01:16:00,34.7,34.2,28.94,South,180,0.9,1.3,98,0.00,,---,0.00,VWS V14.01,2013-01-31 06:16:00,
2013-01-31 01:22:00,35.1,34.5,28.94,South,180,1.3,2.2,98,0.04,,---,0.04,VWS V14.01,2013-01-31 06:22:00,
2013-01-31 01:27:00,35.1,34.5,28.94,South,180,0.0,0.0,98,0.04,,---,0.04,VWS V14.01,2013-01-31 06:27:00,
2013-01-31 01:32:00,35.2,34.7,28.94,South,180,0.0,0.9,98,0.08,,---,0.08,VWS V14.01,2013-01-31 06:32:00,
2013-01-31 01:37:00,35.4,34.9,28.91,South,180,1.6,2.2,98,0.08,,---,0.08,VWS V14.01,2013-01-31 06:37:00,
2013-01-31 01:42:00,35.8,35.3,28.91,South,180,2.0,2.2,98,0.08,,---,0.08,VWS V14.01,2013-01-31 06:42:00,
2013-01-31 01:48:00,35.8,35.3,28.91,South,180,2.5,2.7,98,0.08,,---,0.08,VWS V14.01,2013-01-31 06:48:00,
2013-01-31 01:53:00,35.6,35.1,28.88,South,180,1.3,2.0,98,0.08,,---,0.08,VWS V14.01,2013-01-31 06:53:00,
2013-01-31 01:59:00,35.8,35.3,28.88,South,180,2.0,2.7,98,0.13,,---,0.13,VWS V14.01,2013-01-31 06:59:00,
2013-01-31 02:05:00,35.8,35.3,28.85,South,180,0.0,2.0,98,0.13,,---,0.13,VWS V14.01,2013-01-31 07:05:00,
2013-01-31 02:10:00,36.0,35.5,28.85,SSW,202,2.7,2.7,98,0.21,,---,0.21,VWS V14.01,2013-01-31 07:10:00,
2013-01-31 02:15:00,35.8,35.3,28.85,SSW,202,0.0,0.0,98,0.21,,---,0.21,VWS V14.01,2013-01-31 07:15:00,
2013-01-31 02:21:00,36.0,35.5,28.85,SSW,202,1.3,1.3,98,0.17,,---,0.21,VWS V14.01,2013-01-31 07:21:00,
2013-01-31 02:26:00,36.1,35.6,28.85,South,180,0.9,1.6,98,0.17,,---,0.21,VWS V14.01,2013-01-31 07:26:00,
2013-01-31 02:31:00,36.1,35.6,28.85,South,180,0.0,0.0,98,0.21,,---,0.25,VWS V14.01,2013-01-31 07:31:00,
2013-01-31 02:36:00,36.3,35.8,28.82,South,180,1.1,1.1,98,0.17,,---,0.25,VWS V14.01,2013-01-31 07:36:00,
2013-01-31 02:41:00,36.3,35.8,28.82,South,180,0.9,2.2,98,0.21,,---,0.29,VWS V14.01,2013-01-31 07:41:00,
2013-01-31 02:47:00,36.3,35.8,28.82,South,180,0.0,0.0,98,0.21,,---,0.29,VWS V14.01,2013-01-31 07:47:00,
2013-01-31 02:52:00,36.5,36.0,28.82,South,180,1.6,2.2,98,0.25,,---,0.33,VWS V14.01,2013-01-31 07:52:00,
2013-01-31 02:57:00,36.5,36.0,28.82,South,180,1.1,1.1,98,0.29,,---,0.37,VWS V14.01,2013-01-31 07:57:00,
2013-01-31 03:02:00,36.5,36.0,28.82,South,180,0.0,0.0,98,0.24,,---,0.37,VWS V14.01,2013-01-31 08:02:00,
2013-01-31 03:08:00,36.7,36.2,28.79,South,180,0.0,0.0,98,0.28,,---,0.41,VWS V14.01,2013-01-31 08:08:00,
2013-01-31 03:13:00,36.7,36.2,28.79,South,180,0.0,0.0,98,0.20,,---,0.41,VWS V14.01,2013-01-31 08:13:00,
2013-01-31 03:18:00,36.7,36.2,28.79,South,180,0.0,1.3,98,0.25,,---,0.46,VWS V14.01,2013-01-31 08:18:00,
2013-01-31 03:23:00,37.4,36.9,28.76,South,180,0.0,0.0,98,0.25,,---,0.46,VWS V14.01,2013-01-31 08:23:00,
2013-01-31 03:29:00,37.4,36.9,28.76,South,180,0.0,0.0,98,0.29,,---,0.50,VWS V14.01,2013-01-31 08:29:00,
2013-01-31 03:34:00,37.4,36.9,28.76,South,180,0.0,0.0,98,0.25,,---,0.50,VWS V14.01,2013-01-31 08:34:00,
2013-01-31 03:39:00,37.4,36.9,28.76,South,180,0.0,1.6,98,0.25,,---,0.54,VWS V14.01,2013-01-31 08:39:00,
2013-01-31 03:44:00,37.6,37.1,28.76,South,180,0.0,0.0,98,0.25,,---,0.54,VWS V14.01,2013-01-31 08:44:00,
2013-01-31 03:50:00,37.4,36.9,28.73,South,180,0.0,0.0,98,0.21,,---,0.54,VWS V14.01,2013-01-31 08:50:00,
2013-01-31 03:55:00,37.4,36.9,28.73,South,180,1.3,1.3,98,0.17,,---,0.54,VWS V14.01,2013-01-31 08:55:00,
2013-01-31 04:00:00,37.8,37.2,28.73,South,180,2.2,2.2,98,0.17,,---,0.54,VWS V14.01,2013-01-31 09:00:00,
2013-01-31 04:05:00,38.1,37.6,28.73,South,180,0.0,0.0,98,0.21,,---,0.58,VWS V14.01,2013-01-31 09:05:00,
2013-01-31 04:11:00,38.3,37.8,28.73,South,180,0.0,0.0,98,0.21,,---,0.62,VWS V14.01,2013-01-31 09:11:00,
2013-01-31 04:16:00,38.7,38.2,28.73,South,180,2.2,2.2,98,0.16,,---,0.62,VWS V14.01,2013-01-31 09:16:00,
2013-01-31 04:21:00,39.2,38.7,28.70,SSE,158,1.6,1.6,98,0.16,,---,0.62,VWS V14.01,2013-01-31 09:21:00,
2013-01-31 04:26:00,40.3,39.8,28.70,ESE,112,2.7,2.7,98,0.21,,---,0.67,VWS V14.01,2013-01-31 09:26:00,
2013-01-31 04:31:00,40.8,40.3,28.70,ESE,112,2.7,2.7,98,0.17,,---,0.67,VWS V14.01,2013-01-31 09:31:00,
2013-01-31 04:36:00,41.0,40.5,28.67,ESE,112,2.7,2.7,98,0.17,,---,0.67,VWS V14.01,2013-01-31 09:36:00,
2013-01-31 04:41:00,41.4,40.8,28.67,ESE,112,2.7,2.7,98,0.13,,---,0.67,VWS V14.01,2013-01-31 09:41:00,
2013-01-31 04:46:00,42.8,42.3,28.67,ESE,112,2.7,2.7,98,0.13,,---,0.67,VWS V14.01,2013-01-31 09:46:00,
2013-01-31 04:52:00,44.1,43.5,28.64,ESE,112,2.7,2.7,98,0.13,,---,0.67,VWS V14.01,2013-01-31 09:52:00,
2013-01-31 04:57:00,44.1,43.5,28.64,ESE,112,2.7,2.7,98,0.13,,---,0.67,VWS V14.01,2013-01-31 09:57:00,
2013-01-31 05:02:00,43.2,42.6,28.64,ESE,112,2.7,2.7,98,0.09,,---,0.67,VWS V14.01,2013-01-31 10:02:00,
2013-01-31 05:07:00,43.0,42.5,28.61,ESE,112,2.7,2.7,98,0.09,,---,0.67,VWS V14.01,2013-01-31 10:07:00,
2013-01-31 05:12:00,43.5,43.0,28.61,ESE,112,2.7,2.7,98,0.05,,---,0.67,VWS V14.01,2013-01-31 10:12:00,
2013-01-31 05:17:00,43.5,43.0,28.61,ESE,112,2.7,2.7,98,0.09,,---,0.71,VWS V14.01,2013-01-31 10:17:00,
2013-01-31 05:22:00,44.4,43.9,28.61,ESE,112,2.7,2.7,98,0.09,,---,0.71,VWS V14.01,2013-01-31 10:22:00,
2013-01-31 05:27:00,45.3,44.8,28.61,ESE,112,2.7,2.7,98,0.04,,---,0.71,VWS V14.01,2013-01-31 10:27:00,
2013-01-31 05:32:00,45.3,44.8,28.61,ESE,112,2.7,2.7,98,0.04,,---,0.71,VWS V14.01,2013-01-31 10:32:00,
2013-01-31 05:37:00,45.3,44.8,28.58,ESE,112,2.7,2.7,98,0.08,,---,0.75,VWS V14.01,2013-01-31 10:37:00,
2013-01-31 05:43:00,45.3,44.8,28.58,ESE,112,2.7,2.7,98,0.08,,---,0.75,VWS V14.01,2013-01-31 10:43:00,
2013-01-31 05:49:00,46.4,45.9,28.58,ESE,112,2.7,2.7,98,0.12,,---,0.79,VWS V14.01,2013-01-31 10:49:00,
2013-01-31 05:54:00,46.0,45.5,28.58,ESE,112,2.7,2.7,98,0.12,,---,0.79,VWS V14.01,2013-01-31 10:54:00,
2013-01-31 05:59:00,46.0,45.5,28.58,ENE,68,1.6,1.6,98,0.16,,---,0.83,VWS V14.01,2013-01-31 10:59:00,
2013-01-31 06:04:00,46.0,45.5,28.52,ENE,68,1.6,1.6,98,0.20,,---,0.87,VWS V14.01,2013-01-31 11:04:00,
2013-01-31 06:09:00,46.4,45.9,28.52,ENE,68,1.6,1.6,98,0.20,,---,0.87,VWS V14.01,2013-01-31 11:09:00,
2013-01-31 06:14:00,46.8,46.2,28.52,NE,45,2.0,2.0,98,0.24,,---,0.91,VWS V14.01,2013-01-31 11:14:00,
2013-01-31 06:19:00,46.8,46.2,28.52,NNE,22,0.0,2.0,98,0.24,,---,0.95,VWS V14.01,2013-01-31 11:19:00,
2013-01-31 06:24:00,46.2,45.7,28.52,NNW,338,2.2,2.2,98,0.24,,---,0.95,VWS V14.01,2013-01-31 11:24:00,
2013-01-31 06:29:00,46.9,46.4,28.52,NNW,338,0.0,2.2,98,0.33,,---,1.04,VWS V14.01,2013-01-31 11:29:00,
2013-01-31 06:34:00,47.5,47.0,28.50,NE,45,3.1,3.1,98,0.33,,---,1.04,VWS V14.01,2013-01-31 11:34:00,
2013-01-31 06:39:00,48.0,47.5,28.50,NE,45,0.0,0.0,98,0.33,,---,1.08,VWS V14.01,2013-01-31 11:39:00,
2013-01-31 06:45:00,47.7,47.1,28.50,NE,45,0.0,0.0,98,0.33,,---,1.08,VWS V14.01,2013-01-31 11:45:00,
2013-01-31 06:50:00,47.8,47.3,28.50,NE,45,0.0,0.0,98,0.33,,---,1.12,VWS V14.01,2013-01-31 11:50:00,
2013-01-31 06:55:00,48.6,48.0,28.50,NE,45,0.0,0.0,98,0.33,,---,1.12,VWS V14.01,2013-01-31 11:55:00,
2013-01-31 07:00:00,48.7,48.2,28.50,SW,225,3.1,3.1,98,0.29,,---,1.12,VWS V14.01,2013-01-31 12:00:00,
2013-01-31 07:05:00,49.1,48.6,28.50,SSE,158,1.1,1.1,98,0.25,,---,1.12,VWS V14.01,2013-01-31 12:05:00,
2013-01-31 07:10:00,48.6,48.0,28.50,South,180,0.0,0.0,98,0.29,,---,1.16,VWS V14.01,2013-01-31 12:10:00,
2013-01-31 07:16:00,49.8,49.3,28.50,South,180,5.6,5.6,98,0.29,,---,1.20,VWS V14.01,2013-01-31 12:16:00,
2013-01-31 07:21:00,50.0,49.5,28.50,South,180,3.1,3.8,98,0.25,,---,1.20,VWS V14.01,2013-01-31 12:21:00,
2013-01-31 07:27:00,50.9,50.4,28.50,NNE,22,2.7,2.7,98,0.20,,---,1.20,VWS V14.01,2013-01-31 12:27:00,
2013-01-31 07:32:00,50.7,50.2,28.50,SW,225,2.9,2.9,98,0.16,,---,1.20,VWS V14.01,2013-01-31 12:32:00,
2013-01-31 07:38:00,50.7,50.2,28.50,WSW,248,3.1,3.1,98,0.16,,---,1.20,VWS V14.01,2013-01-31 12:38:00,
2013-01-31 07:43:00,51.3,50.7,28.50,SSW,202,0.0,0.0,98,0.12,,---,1.20,VWS V14.01,2013-01-31 12:43:00,
2013-01-31 07:48:00,50.9,50.4,28.50,SSW,202,0.0,0.0,98,0.12,,---,1.20,VWS V14.01,2013-01-31 12:48:00,
2013-01-31 07:53:00,50.9,50.4,28.50,SSW,202,0.0,0.0,98,0.08,,---,1.20,VWS V14.01,2013-01-31 12:53:00,
2013-01-31 07:58:00,51.1,50.5,28.50,SSW,202,0.0,0.0,98,0.08,,---,1.20,VWS V14.01,2013-01-31 12:58:00,
2013-01-31 08:03:00,51.4,50.9,28.50,SSW,202,0.0,0.0,98,0.08,,---,1.20,VWS V14.01,2013-01-31 13:03:00,
2013-01-31 08:08:00,51.6,51.1,28.47,SSW,202,0.0,0.0,98,0.04,,---,1.20,VWS V14.01,2013-01-31 13:08:00,
2013-01-31 08:13:00,51.6,51.1,28.47,SSW,202,0.0,0.0,98,0.00,,---,1.20,VWS V14.01,2013-01-31 13:13:00,
2013-01-31 08:18:00,51.8,51.3,28.47,SSW,202,0.0,0.0,98,0.00,,---,1.20,VWS V14.01,2013-01-31 13:18:00,
2013-01-31 08:23:00,51.1,50.5,28.44,SSW,202,0.0,0.0,98,0.00,,---,1.20,VWS V14.01,2013-01-31 13:23:00,
2013-01-31 08:28:00,50.9,50.4,28.44,SSW,202,0.0,0.0,98,0.00,,---,1.20,VWS V14.01,2013-01-31 13:28:00,
2013-01-31 08:33:00,50.7,50.2,28.44,SSW,202,0.0,0.0,98,0.00,,---,1.20,VWS V14.01,2013-01-31 13:33:00,
2013-01-31 08:38:00,51.1,50.5,28.44,SSW,202,0.0,0.0,98,0.00,,---,1.20,VWS V14.01,2013-01-31 13:38:00,
2013-01-31 08:43:00,51.4,50.9,28.44,SSW,202,0.0,0.0,98,0.00,,---,1.20,VWS V14.01,2013-01-31 13:43:00,
2013-01-31 08:48:00,51.4,50.9,28.44,SSW,202,0.0,0.0,98,0.00,,---,1.20,VWS V14.01,2013-01-31 13:48:00,
2013-01-31 08:53:00,51.4,50.9,28.44,SSW,202,0.0,0.0,98,0.00,,---,1.20,VWS V14.01,2013-01-31 13:53:00,
2013-01-31 08:58:00,51.4,50.9,28.44,SSW,202,0.0,0.0,98,0.00,,---,1.20,VWS V14.01,2013-01-31 13:58:00,
2013-01-31 09:03:00,51.4,50.9,28.44,SSW,202,0.0,0.0,98,0.00,,---,1.20,VWS V14.01,2013-01-31 14:03:00,
2013-01-31 09:08:00,51.1,50.5,28.44,NNE,22,2.0,2.0,98,0.00,,---,1.20,VWS V14.01,2013-01-31 14:08:00,
2013-01-31 09:13:00,51.1,50.5,28.44,NNE,22,2.0,2.0,98,0.00,,---,1.20,VWS V14.01,2013-01-31 14:13:00,
2013-01-31 09:18:00,51.3,50.7,28.44,SSW,202,2.5,2.5,98,0.00,,---,1.20,VWS V14.01,2013-01-31 14:18:00,
2013-01-31 09:23:00,51.3,50.7,28.41,SSW,202,2.5,2.5,98,0.00,,---,1.20,VWS V14.01,2013-01-31 14:23:00,
2013-01-31 09:28:00,51.3,50.7,28.41,SE,135,6.3,6.3,98,0.00,,---,1.20,VWS V14.01,2013-01-31 14:28:00,
2013-01-31 09:33:00,51.4,50.9,28.41,SE,135,6.3,6.3,98,0.00,,---,1.20,VWS V14.01,2013-01-31 14:33:00,
2013-01-31 09:39:00,51.6,51.1,28.38,NNE,22,2.0,2.0,98,0.00,,---,1.20,VWS V14.01,2013-01-31 14:39:00,
2013-01-31 09:44:00,51.4,50.9,28.38,NNE,22,2.0,2.0,98,0.00,,---,1.20,VWS V14.01,2013-01-31 14:44:00,
2013-01-31 09:49:00,51.6,51.1,28.38,NNE,22,2.0,2.0,98,0.00,,---,1.20,VWS V14.01,2013-01-31 14:49:00,
2013-01-31 09:54:00,51.3,50.7,28.38,NNW,338,2.5,2.5,98,0.00,,---,1.20,VWS V14.01,2013-01-31 14:54:00,
2013-01-31 10:00:00,50.0,49.5,28.38,WSW,248,5.8,5.8,98,0.00,,---,1.20,VWS V14.01,2013-01-31 15:00:00,
2013-01-31 10:05:00,48.0,46.9,28.41,West,270,7.8,12.1,96,0.00,,---,1.20,VWS V14.01,2013-01-31 15:05:00,
2013-01-31 10:10:00,47.1,44.6,28.41,WSW,248,7.6,7.6,91,0.00,,---,1.20,VWS V14.01,2013-01-31 15:10:00,
2013-01-31 10:15:00,46.6,43.2,28.41,West,270,9.0,12.1,88,0.00,,---,1.20,VWS V14.01,2013-01-31 15:15:00,
2013-01-31 10:20:00,46.0,41.2,28.44,WSW,248,11.0,13.4,83,0.00,,---,1.20,VWS V14.01,2013-01-31 15:20:00,
2013-01-31 10:25:00,44.8,39.3,28.44,West,270,7.6,7.6,81,0.00,,---,1.20,VWS V14.01,2013-01-31 15:25:00,
2013-01-31 10:30:00,43.7,38.3,28.44,West,270,10.5,10.5,81,0.00,,---,1.20,VWS V14.01,2013-01-31 15:30:00,
2013-01-31 10:35:00,43.0,38.2,28.47,WSW,248,13.6,13.6,83,0.00,,---,1.20,VWS V14.01,2013-01-31 15:35:00,
2013-01-31 10:40:00,42.4,38.3,28.47,WSW,248,13.6,13.6,85,0.00,,---,1.20,VWS V14.01,2013-01-31 15:40:00,
2013-01-31 10:45:00,42.3,38.4,28.47,WSW,248,13.6,13.6,86,0.09,,---,1.29,VWS V14.01,2013-01-31 15:45:00,
2013-01-31 10:50:00,43.2,39.6,28.47,WSW,248,13.6,13.6,87,0.09,,---,1.29,VWS V14.01,2013-01-31 15:50:00,
2013-01-31 10:56:00,43.3,39.1,28.47,SSE,158,1.6,1.6,85,0.09,,---,1.29,VWS V14.01,2013-01-31 15:56:00,
2013-01-31 11:01:00,43.3,39.4,28.47,NNE,22,2.5,2.5,86,0.09,,---,1.29,VWS V14.01,2013-01-31 16:01:00,
2013-01-31 11:07:00,43.7,38.6,28.47,NNE,22,2.5,2.5,82,0.09,,---,1.29,VWS V14.01,2013-01-31 16:07:00,
2013-01-31 11:12:00,43.9,38.8,28.47,SE,135,2.7,2.7,82,0.09,,---,1.29,VWS V14.01,2013-01-31 16:12:00,
2013-01-31 11:17:00,44.2,39.1,28.47,ENE,68,3.1,3.1,82,0.09,,---,1.29,VWS V14.01,2013-01-31 16:17:00,
2013-01-31 11:22:00,44.4,39.6,28.50,ENE,68,2.7,3.1,83,0.09,,---,1.29,VWS V14.01,2013-01-31 16:22:00,
2013-01-31 11:28:00,44.6,39.1,28.50,SSE,158,1.6,1.6,81,0.09,,---,1.29,VWS V14.01,2013-01-31 16:28:00,
2013-01-31 11:33:00,45.0,38.2,28.50,South,180,7.6,7.6,77,0.09,,---,1.29,VWS V14.01,2013-01-31 16:33:00,
2013-01-31 11:38:00,45.1,38.0,28.50,SSW,202,2.0,2.0,76,0.09,,---,1.29,VWS V14.01,2013-01-31 16:38:00,
2013-01-31 11:43:00,45.0,37.2,28.50,SSW,202,2.2,2.2,74,0.09,,---,1.29,VWS V14.01,2013-01-31 16:43:00,
2013-01-31 11:49:00,44.8,33.0,28.52,SSW,202,8.7,8.7,63,0.00,,---,1.29,VWS V14.01,2013-01-31 16:49:00,
2013-01-31 11:54:00,43.9,33.3,28.52,SSW,202,8.7,8.7,66,0.00,,---,1.29,VWS V14.01,2013-01-31 16:54:00,
2013-01-31 11:59:00,43.9,32.5,28.52,West,270,4.9,4.9,64,0.00,,---,1.29,VWS V14.01,2013-01-31 16:59:00,
2013-01-31 12:04:00,43.7,32.0,28.52,West,270,5.6,5.6,63,0.00,,---,1.29,VWS V14.01,2013-01-31 17:04:00,
2013-01-31 12:09:00,43.7,30.7,28.52,WNW,292,4.3,4.3,60,0.00,,---,1.29,VWS V14.01,2013-01-31 17:09:00,
2013-01-31 12:15:00,43.7,29.0,28.52,WSW,248,5.4,5.4,56,0.00,,---,1.29,VWS V14.01,2013-01-31 17:15:00,
2013-01-31 12:20:00,43.9,26.0,28.55,WNW,292,7.6,10.5,49,0.00,,---,1.29,VWS V14.01,2013-01-31 17:20:00,
2013-01-31 12:25:00,44.1,26.6,28.55,West,270,7.4,7.4,50,0.00,,---,1.29,VWS V14.01,2013-01-31 17:25:00,
2013-01-31 12:30:00,44.1,25.6,28.55,WSW,248,8.1,8.1,48,0.00,,---,1.29,VWS V14.01,2013-01-31 17:30:00,
2013-01-31 12:35:00,44.1,25.6,28.55,West,270,8.1,8.1,48,0.00,,---,1.29,VWS V14.01,2013-01-31 17:35:00,
2013-01-31 12:41:00,44.2,24.3,28.55,West,270,8.1,8.1,45,0.00,,---,1.29,VWS V14.01,2013-01-31 17:41:00,
2013-01-31 12:46:00,44.2,22.6,28.55,NW,315,17.7,17.7,42,0.00,,---,1.29,VWS V14.01,2013-01-31 17:46:00,
2013-01-31 12:51:00,44.1,21.9,28.58,WNW,292,8.1,8.1,41,0.00,,---,1.29,VWS V14.01,2013-01-31 17:51:00,
2013-01-31 12:56:00,43.3,21.2,28.58,WSW,248,8.5,8.5,41,0.00,,---,1.29,VWS V14.01,2013-01-31 17:56:00,
2013-01-31 13:47:00,42.4,19.8,28.61,NW,315,4.7,4.7,40,0.00,,---,1.29,VWS V14.01,2013-01-31 18:47:00,
2013-01-31 13:52:00,42.4,19.2,28.61,WNW,292,8.5,8.5,39,0.00,,---,1.29,VWS V14.01,2013-01-31 18:52:00,
2013-01-31 13:57:00,42.3,19.7,28.61,West,270,7.6,7.6,40,0.00,,---,1.29,VWS V14.01,2013-01-31 18:57:00,
2013-01-31 14:02:00,42.1,19.5,28.61,West,270,10.3,10.3,40,0.00,,---,1.29,VWS V14.01,2013-01-31 19:02:00,
2013-01-31 14:07:00,41.5,18.4,28.64,SW,225,9.4,9.4,39,0.00,,---,1.29,VWS V14.01,2013-01-31 19:07:00,
2013-01-31 14:13:00,41.2,18.7,28.64,SW,225,9.4,9.4,40,0.00,,---,1.29,VWS V14.01,2013-01-31 19:13:00,
2013-01-31 14:18:00,41.5,19.0,28.64,South,180,6.5,9.4,40,0.00,,---,1.29,VWS V14.01,2013-01-31 19:18:00,
2013-01-31 14:23:00,42.1,19.5,28.64,South,180,0.0,0.0,40,0.00,,---,1.29,VWS V14.01,2013-01-31 19:23:00,
2013-01-31 14:28:00,42.3,19.7,28.64,South,180,0.0,0.0,40,0.00,,---,1.29,VWS V14.01,2013-01-31 19:28:00,
2013-01-31 14:33:00,41.7,19.8,28.64,WNW,292,10.7,10.7,41,0.00,,---,1.29,VWS V14.01,2013-01-31 19:33:00,
2013-01-31 14:38:00,41.4,19.5,28.67,West,270,8.7,8.7,41,0.00,,---,1.29,VWS V14.01,2013-01-31 19:38:00,
2013-01-31 14:43:00,40.8,19.0,28.67,SSW,202,4.0,4.0,41,0.00,,---,1.29,VWS V14.01,2013-01-31 19:43:00,
2013-01-31 14:48:00,41.0,18.5,28.67,West,270,3.8,3.8,40,0.00,,---,1.29,VWS V14.01,2013-01-31 19:48:00,
2013-01-31 14:53:00,40.8,19.0,28.67,West,270,3.8,3.8,41,0.00,,---,1.29,VWS V14.01,2013-01-31 19:53:00,
2013-01-31 14:58:00,40.5,18.1,28.67,South,180,4.9,6.3,40,0.00,,---,1.29,VWS V14.01,2013-01-31 19:58:00,
2013-01-31 15:03:00,40.1,18.3,28.67,South,180,4.9,4.9,41,0.00,,---,1.29,VWS V14.01,2013-01-31 20:03:00,
2013-01-31 15:08:00,39.6,17.2,28.70,WSW,248,5.4,5.4,40,0.00,,---,1.29,VWS V14.01,2013-01-31 20:08:00,
2013-01-31 15:14:00,39.2,16.9,28.70,WSW,248,5.4,5.4,40,0.00,,---,1.29,VWS V14.01,2013-01-31 20:14:00,
2013-01-31 15:20:00,38.7,16.4,28.70,WNW,292,12.3,12.3,40,0.00,,---,1.29,VWS V14.01,2013-01-31 20:20:00,
2013-01-31 15:25:00,38.8,16.6,28.70,WNW,292,12.3,12.3,40,0.00,,---,1.29,VWS V14.01,2013-01-31 20:25:00,
2013-01-31 15:31:00,38.8,16.6,28.70,NNW,338,6.0,12.3,40,0.00,,---,1.29,VWS V14.01,2013-01-31 20:31:00,
2013-01-31 15:36:00,38.3,16.1,28.73,NNW,338,6.0,6.0,40,0.00,,---,1.29,VWS V14.01,2013-01-31 20:36:00,
2013-01-31 15:41:00,38.1,15.9,28.73,NNW,338,6.0,6.0,40,0.00,,---,1.29,VWS V14.01,2013-01-31 20:41:00,
2013-01-31 15:46:00,38.1,15.9,28.73,SW,225,5.4,5.4,40,0.00,,---,1.29,VWS V14.01,2013-01-31 20:46:00,
2013-01-31 15:52:00,37.9,15.8,28.73,SW,225,5.4,5.4,40,0.00,,---,1.29,VWS V14.01,2013-01-31 20:52:00,
2013-01-31 15:58:00,37.8,15.6,28.73,West,270,4.3,4.3,40,0.00,,---,1.29,VWS V14.01,2013-01-31 20:58:00,
2013-01-31 16:03:00,37.4,15.3,28.73,West,270,4.3,4.3,40,0.00,,---,1.29,VWS V14.01,2013-01-31 21:03:00,
2013-01-31 16:09:00,37.2,15.1,28.76,West,270,4.3,4.3,40,0.00,,---,1.29,VWS V14.01,2013-01-31 21:09:00,
2013-01-31 16:14:00,36.9,15.4,28.76,West,270,4.3,4.3,41,0.00,,---,1.29,VWS V14.01,2013-01-31 21:14:00,
2013-01-31 16:20:00,36.5,14.5,28.79,West,270,4.3,4.3,40,0.00,,---,1.29,VWS V14.01,2013-01-31 21:20:00,
2013-01-31 16:25:00,36.3,14.3,28.79,West,270,4.3,4.3,40,0.00,,---,1.29,VWS V14.01,2013-01-31 21:25:00,
2013-01-31 16:30:00,36.1,14.2,28.79,West,270,4.3,4.3,40,0.00,,---,1.29,VWS V14.01,2013-01-31 21:30:00,
2013-01-31 16:35:00,35.8,13.8,28.79,West,270,4.3,4.3,40,0.00,,---,1.29,VWS V14.01,2013-01-31 21:35:00,
2013-01-31 16:40:00,35.8,13.8,28.79,West,270,4.3,4.3,40,0.00,,---,1.29,VWS V14.01,2013-01-31 21:40:00,
2013-01-31 16:45:00,35.4,14.1,28.79,West,270,2.5,4.3,41,0.00,,---,1.29,VWS V14.01,2013-01-31 21:45:00,
2013-01-31 16:51:00,35.1,13.8,28.82,West,270,2.5,2.5,41,0.00,,---,1.29,VWS V14.01,2013-01-31 21:51:00,
2013-01-31 16:56:00,35.1,13.8,28.82,West,270,2.5,2.5,41,0.00,,---,1.29,VWS V14.01,2013-01-31 21:56:00,
2013-01-31 17:02:00,34.9,13.0,28.82,South,180,10.1,10.1,40,0.00,,---,1.29,VWS V14.01,2013-01-31 22:02:00,
2013-01-31 17:08:00,34.7,12.9,28.82,South,180,10.1,10.1,40,0.00,,---,1.29,VWS V14.01,2013-01-31 22:08:00,
2013-01-31 17:13:00,34.5,13.3,28.82,SSW,202,2.2,10.1,41,0.00,,---,1.29,VWS V14.01,2013-01-31 22:13:00,
2013-01-31 17:19:00,34.3,12.5,28.82,WSW,248,7.4,7.4,40,0.00,,---,1.29,VWS V14.01,2013-01-31 22:19:00,
2013-01-31 17:24:00,34.3,12.5,28.82,West,270,9.8,9.8,40,0.00,,---,1.29,VWS V14.01,2013-01-31 22:24:00,
2013-01-31 17:30:00,34.3,12.5,28.82,West,270,9.8,9.8,40,0.00,,---,1.29,VWS V14.01,2013-01-31 22:30:00,
2013-01-31 17:35:00,34.2,12.4,28.82,WSW,248,7.8,7.8,40,0.00,,---,1.29,VWS V14.01,2013-01-31 22:35:00,
2013-01-31 17:40:00,34.0,12.2,28.82,WSW,248,7.8,7.8,40,0.00,,---,1.29,VWS V14.01,2013-01-31 22:40:00,
2013-01-31 17:46:00,33.8,12.1,28.82,SSW,202,3.1,3.1,40,0.00,,---,1.29,VWS V14.01,2013-01-31 22:46:00,
2013-01-31 17:52:00,33.6,12.4,28.85,SSW,202,3.1,3.1,41,0.00,,---,1.29,VWS V14.01,2013-01-31 22:52:00,
2013-01-31 17:57:00,33.6,12.4,28.85,SSW,202,3.1,3.1,41,0.00,,---,1.29,VWS V14.01,2013-01-31 22:57:00,
2013-01-31 18:02:00,33.6,12.4,28.85,WSW,248,4.3,4.3,41,0.00,,---,1.29,VWS V14.01,2013-01-31 23:02:00,
2013-01-31 18:07:00,33.4,12.3,28.85,WSW,248,4.3,4.3,41,0.00,,---,1.29,VWS V14.01,2013-01-31 23:07:00,
2013-01-31 18:13:00,33.4,12.3,28.85,SW,225,2.0,3.1,41,0.00,,---,1.29,VWS V14.01,2013-01-31 23:13:00,
2013-01-31 18:18:00,33.3,11.6,28.85,SSW,202,8.1,8.7,40,0.00,,---,1.29,VWS V14.01,2013-01-31 23:18:00,
2013-01-31 18:23:00,33.1,11.4,28.85,NNE,22,3.6,8.1,40,0.00,,---,1.29,VWS V14.01,2013-01-31 23:23:00,
2013-01-31 18:28:00,32.9,11.2,28.85,WSW,248,3.4,3.4,40,0.00,,---,1.29,VWS V14.01,2013-01-31 23:28:00,
2013-01-31 18:33:00,32.7,11.1,28.85,WSW,248,3.4,3.4,40,0.00,,---,1.29,VWS V14.01,2013-01-31 23:33:00,
2013-01-31 18:38:00,32.5,10.9,28.85,SSW,202,2.5,2.5,40,0.00,,---,1.29,VWS V14.01,2013-01-31 23:38:00,
2013-01-31 18:43:00,32.2,10.6,28.85,SSW,202,3.4,3.6,40,0.00,,---,1.29,VWS V14.01,2013-01-31 23:43:00,
2013-01-31 18:48:00,32.4,10.8,28.85,South,180,5.6,5.6,40,0.00,,---,1.29,VWS V14.01,2013-01-31 23:48:00,
2013-01-31 18:53:00,32.4,10.8,28.88,SSW,202,1.6,4.0,40,0.00,,---,1.29,VWS V14.01,2013-01-31 23:53:00,
2013-01-31 18:58:00,32.5,10.9,28.88,NNW,338,3.4,3.4,40,0.00,,---,1.29,VWS V14.01,2013-01-31 23:58:00,
2013-01-31 19:03:00,32.2,10.6,28.88,SSE,158,1.6,1.6,40,0.00,,---,1.29,VWS V14.01,2013-02-01 00:03:00,
2013-01-31 19:09:00,32.2,10.6,28.88,SSE,158,1.6,1.6,40,0.00,,---,1.29,VWS V14.01,2013-02-01 00:09:00,
2013-01-31 19:14:00,32.4,10.8,28.88,West,270,10.7,10.7,40,0.00,,---,1.29,VWS V14.01,2013-02-01 00:14:00,
2013-01-31 19:19:00,32.4,10.2,28.88,WNW,292,6.3,7.4,39,0.00,,---,1.29,VWS V14.01,2013-02-01 00:19:00,
2013-01-31 19:24:00,32.4,10.2,28.88,WSW,248,8.5,8.5,39,0.00,,---,1.29,VWS V14.01,2013-02-01 00:24:00,
2013-01-31 19:29:00,32.2,10.6,28.88,SE,135,3.6,3.6,40,0.00,,---,1.29,VWS V14.01,2013-02-01 00:29:00,
2013-01-31 19:34:00,32.2,10.6,28.88,SE,135,3.6,3.6,40,0.00,,---,1.29,VWS V14.01,2013-02-01 00:34:00,
2013-01-31 19:39:00,32.2,10.6,28.88,SW,225,6.0,6.0,40,0.00,,---,1.29,VWS V14.01,2013-02-01 00:39:00,
2013-01-31 19:44:00,32.0,10.4,28.88,ENE,68,2.5,3.1,40,0.00,,---,1.29,VWS V14.01,2013-02-01 00:44:00,
2013-01-31 19:49:00,32.0,10.4,28.88,ENE,68,2.5,2.5,40,0.00,,---,1.29,VWS V14.01,2013-02-01 00:49:00,
2013-01-31 19:54:00,31.6,10.1,28.88,ENE,68,2.5,2.5,40,0.00,,---,1.29,VWS V14.01,2013-02-01 00:54:00,
2013-01-31 19:59:00,31.8,9.1,28.88,West,270,6.3,6.3,38,0.00,,---,1.29,VWS V14.01,2013-02-01 00:59:00,
2013-01-31 20:04:00,31.8,9.1,28.88,WSW,248,15.4,15.4,38,0.00,,---,1.29,VWS V14.01,2013-02-01 01:04:00,
2013-01-31 20:09:00,31.6,8.4,28.88,West,270,13.2,13.2,37,0.00,,---,1.29,VWS V14.01,2013-02-01 01:09:00,
2013-01-31 20:15:00,31.3,8.0,28.88,WNW,292,9.4,9.4,37,0.00,,---,1.29,VWS V14.01,2013-02-01 01:15:00,
2013-01-31 20:20:00,31.3,8.6,28.88,West,270,7.8,7.8,38,0.00,,---,1.29,VWS V14.01,2013-02-01 01:20:00,
2013-01-31 20:25:00,31.1,7.9,28.88,WNW,292,8.7,8.7,37,0.00,,---,1.29,VWS V14.01,2013-02-01 01:25:00,
2013-01-31 20:30:00,30.9,7.7,28.88,WNW,292,8.7,8.7,37,0.00,,---,1.29,VWS V14.01,2013-02-01 01:30:00,
2013-01-31 20:35:00,31.1,7.3,28.91,WSW,248,12.5,12.5,36,0.00,,---,1.29,VWS V14.01,2013-02-01 01:35:00,
2013-01-31 20:41:00,30.9,7.7,28.91,WSW,248,9.4,9.4,37,0.00,,---,1.29,VWS V14.01,2013-02-01 01:41:00,
2013-01-31 20:46:00,30.7,7.6,28.91,West,270,5.8,7.4,37,0.00,,---,1.29,VWS V14.01,2013-02-01 01:46:00,
2013-01-31 20:51:00,30.4,7.8,28.91,NNW,338,8.5,8.5,38,0.00,,---,1.29,VWS V14.01,2013-02-01 01:51:00,
2013-01-31 20:56:00,30.2,7.7,28.91,SSW,202,6.5,6.5,38,0.00,,---,1.29,VWS V14.01,2013-02-01 01:56:00,
2013-01-31 21:02:00,30.2,7.7,28.91,WSW,248,6.0,6.0,38,0.00,,---,1.29,VWS V14.01,2013-02-01 02:02:00,
2013-01-31 21:08:00,30.0,8.1,28.91,SSW,202,3.1,3.1,39,0.00,,---,1.29,VWS V14.01,2013-02-01 02:08:00,
2013-01-31 21:13:00,30.2,7.7,28.91,NNW,338,1.1,1.1,38,0.00,,---,1.29,VWS V14.01,2013-02-01 02:13:00,
2013-01-31 21:18:00,30.0,8.1,28.91,West,270,7.8,7.8,39,0.00,,---,1.29,VWS V14.01,2013-02-01 02:18:00,
2013-01-31 21:23:00,30.0,8.1,28.94,NNW,338,2.9,2.9,39,0.00,,---,1.29,VWS V14.01,2013-02-01 02:23:00,
2013-01-31 21:28:00,30.0,8.1,28.94,West,270,9.8,9.8,39,0.00,,---,1.29,VWS V14.01,2013-02-01 02:28:00,
2013-01-31 21:34:00,29.8,8.5,28.94,North,0,2.9,10.5,40,0.00,,---,1.29,VWS V14.01,2013-02-01 02:34:00,
2013-01-31 21:39:00,29.5,8.7,28.94,WNW,292,2.5,2.5,41,0.00,,---,1.29,VWS V14.01,2013-02-01 02:39:00,
2013-01-31 21:44:00,29.5,8.7,28.94,WNW,292,5.6,5.6,41,0.08,,---,1.37,VWS V14.01,2013-02-01 02:44:00,
2013-01-31 21:49:00,28.8,12.9,28.97,NNW,338,2.5,2.5,51,0.08,,---,1.37,VWS V14.01,2013-02-01 02:49:00,
2013-01-31 21:54:00,28.2,12.9,28.97,WNW,292,10.1,10.1,52,0.08,,---,1.37,VWS V14.01,2013-02-01 02:54:00,
2013-01-31 21:59:00,27.9,13.0,28.97,SSE,158,7.4,7.4,53,0.08,,---,1.37,VWS V14.01,2013-02-01 02:59:00,
2013-01-31 22:04:00,27.5,13.5,28.97,WNW,292,4.9,4.9,55,0.08,,---,1.37,VWS V14.01,2013-02-01 03:04:00,
2013-01-31 22:10:00,27.1,13.9,28.97,SSW,202,3.4,3.4,57,0.08,,---,1.37,VWS V14.01,2013-02-01 03:10:00,
2013-01-31 22:16:00,27.0,13.8,28.97,SSW,202,3.1,3.1,57,0.08,,---,1.37,VWS V14.01,2013-02-01 03:16:00,
2013-01-31 22:22:00,27.0,13.4,28.97,SW,225,2.5,2.5,56,0.08,,---,1.37,VWS V14.01,2013-02-01 03:22:00,
2013-01-31 22:28:00,27.0,13.0,28.97,SSE,158,3.1,3.1,55,0.08,,---,1.37,VWS V14.01,2013-02-01 03:28:00,
2013-01-31 22:34:00,27.0,12.6,28.97,WNW,292,2.0,3.1,54,0.08,,---,1.37,VWS V14.01,2013-02-01 03:34:00,
2013-01-31 22:39:00,26.8,12.0,29.00,South,180,2.5,3.8,53,0.08,,---,1.37,VWS V14.01,2013-02-01 03:39:00,
2013-01-31 22:44:00,26.8,11.5,29.00,NW,315,4.0,4.0,52,0.08,,---,1.37,VWS V14.01,2013-02-01 03:44:00,
2013-01-31 22:49:00,27.0,8.9,29.00,SSE,158,5.8,5.8,46,0.00,,---,1.37,VWS V14.01,2013-02-01 03:49:00,
2013-01-31 22:54:00,26.8,8.3,29.00,West,270,7.8,7.8,45,0.00,,---,1.37,VWS V14.01,2013-02-01 03:54:00,
2013-01-31 22:59:00,26.6,8.6,29.00,SSW,202,0.0,1.3,46,0.00,,---,1.37,VWS V14.01,2013-02-01 03:59:00,
2013-01-31 23:05:00,26.4,8.0,29.00,WSW,248,3.6,6.0,45,0.00,,---,1.37,VWS V14.01,2013-02-01 04:05:00,
2013-01-31 23:10:00,26.6,7.6,29.00,West,270,5.4,6.3,44,0.00,,---,1.37,VWS V14.01,2013-02-01 04:10:00,
2013-01-31 23:15:00,26.4,7.5,29.00,SW,225,1.1,4.3,44,0.00,,---,1.37,VWS V14.01,2013-02-01 04:15:00,
2013-01-31 23:20:00,26.4,7.5,29.00,SSE,158,3.4,3.4,44,0.00,,---,1.37,VWS V14.01,2013-02-01 04:20:00,
2013-01-31 23:25:00,26.2,7.3,29.00,SSE,158,3.4,3.4,44,0.00,,---,1.37,VWS V14.01,2013-02-01 04:25:00,
2013-01-31 23:30:00,26.2,7.3,29.00,West,270,3.6,3.6,44,0.00,,---,1.37,VWS V14.01,2013-02-01 04:30:00,
2013-01-31 23:36:00,26.2,7.3,29.00,SW,225,3.8,3.8,44,0.00,,---,1.37,VWS V14.01,2013-02-01 04:36:00,
2013-01-31 23:41:00,26.1,7.2,29.00,SSW,202,1.6,1.6,44,0.00,,---,1.37,VWS V14.01,2013-02-01 04:41:00,
2013-01-31 23:46:00,26.1,6.6,29.00,SSW,202,1.6,1.6,43,0.00,,---,1.37,VWS V14.01,2013-02-01 04:46:00,
2013-01-31 23:51:00,26.1,6.6,29.03,SSE,158,1.6,1.6,43,0.00,,---,1.37,VWS V14.01,2013-02-01 04:51:00,
2013-01-31 23:56:00,26.1,6.6,29.03,SSW,202,2.0,2.0,43,0.00,,---,1.37,VWS V14.01,2013-02-01 04:56:00,